CDT,Max TemperatureF,Mean TemperatureF,Min TemperatureF,Max Dew PointF,MeanDew PointF,Min DewpointF,Max Humidity, Mean Humidity, Min Humidity, Max Sea Level PressureIn, Mean Sea Level PressureIn, Min Sea Level PressureIn, Max VisibilityMiles, Mean VisibilityMiles, Min VisibilityMiles, Max Wind SpeedMPH, Mean Wind SpeedMPH, Max Gust SpeedMPH,PrecipitationIn, CloudCover, Events, WindDirDegrees
2012-10-1,69,58,46,45,34,25,63,41,18,30.09,30.02,29.95,10,10,5,23,12,29,0.00,1,,348
2012-10-2,75,58,41,34,29,25,70,38,15,29.98,29.82,29.70,10,10,10,24,9,36,0.00,0,,181
2012-10-3,59,50,42,45,38,27,87,62,41,29.93,29.88,29.80,10,9,4,30,9,41,0.00,1,Rain,26
2012-10-4,46,40,33,43,36,30,100,89,75,30.20,30.03,29.83,10,7,1,34,27,43,0.08,8,Rain-Snow,327
2012-10-5,41,36,30,36,31,27,100,85,65,30.28,30.20,30.16,10,10,5,29,17,34,0.00,5,Rain-Snow,319
2012-10-6,46,37,28,34,29,25,100,75,43,30.38,30.30,30.18,10,10,7,16,10,20,0.00,3,Rain,320
2012-10-7,57,44,30,28,26,23,80,57,27,30.17,29.94,29.76,10,10,4,15,8,21,0.00,1,,214
2012-10-8,53,44,35,48,37,28,88,73,62,29.75,29.63,29.52,10,10,7,23,9,33,0.02,5,Rain,233
2012-10-9,44,37,30,36,32,27,93,73,53,30.02,29.85,29.70,10,10,7,29,14,33,0.00,6,Rain,306
2012-10-10,50,38,26,37,31,21,100,80,32,30.04,29.97,29.87,10,10,10,14,7,20,0.01,4,Rain,245
2012-10-11,44,36,28,37,30,23,100,77,43,30.41,30.22,29.94,10,10,5,16,10,24,0.00,1,,350
2012-10-12,53,40,26,28,22,16,93,57,24,30.41,30.19,29.82,10,10,10,23,10,33,0.00,0,,172
2012-10-13,64,53,41,43,37,19,81,58,30,29.84,29.73,29.65,10,10,10,14,9,18,0.00,0,,229
2012-10-14,55,44,33,39,36,32,100,78,54,29.95,29.91,29.84,10,10,10,14,9,20,0.00,0,,351
2012-10-15,66,49,32,39,37,30,100,66,37,29.93,29.77,29.56,10,10,7,23,9,30,0.00,1,,170
2012-10-16,71,60,48,52,45,37,94,61,29,29.56,29.44,29.28,10,10,7,12,6,17,0.00,2,Rain,195
2012-10-17,57,50,44,54,48,45,100,94,67,29.27,29.19,29.14,10,8,3,29,10,34,0.56,7,Rain,269
2012-10-18,50,46,42,50,46,43,100,100,100,29.58,29.31,29.13,10,6,1,37,20,46,0.54,8,Rain,340
2012-10-19,42,42,41,43,42,41,100,100,100,29.77,29.72,29.58,10,8,3,33,22,41,0.03,8,Rain,349
2012-10-20,51,45,39,48,44,39,100,96,82,29.75,29.70,29.64,10,10,4,24,6,29,0.00,6,,172
2012-10-21,57,50,42,54,47,43,100,96,82,30.04,29.83,29.69,10,10,4,23,10,28,0.00,1,Rain,15
2012-10-22,55,47,39,48,43,37,100,86,62,30.07,30.00,29.89,10,10,10,16,11,20,0.06,2,Rain,30
2012-10-23,55,52,48,55,52,48,100,99,88,29.87,29.73,29.63,10,5,0,18,7,,0.07,8,Fog-Rain-Thunderstorm,150
2012-10-24,50,44,37,48,40,36,100,94,87,30.02,29.94,29.81,10,10,10,18,11,22,0.00,5,Rain,327
2012-10-25,39,36,33,36,30,27,100,78,61,30.15,30.02,29.96,10,10,10,24,15,30,0.00,5,,317
2012-10-26,39,36,33,28,20,9,75,54,28,30.31,30.27,30.15,10,10,10,26,17,40,0.00,7,,289
2012-10-27,37,30,24,32,25,18,100,80,45,30.34,30.30,30.27,10,9,0,13,4,,0.02,5,Rain-Snow,294
2012-10-28,39,28,19,37,31,19,100,97,87,30.29,30.25,30.18,10,9,2,10,7,,0.02,5,Snow,65
2012-10-29,51,45,39,37,34,30,93,72,47,30.19,30.16,30.14,10,10,7,20,11,23,0.00,3,,149
2012-10-30,46,39,32,34,31,23,93,66,40,30.19,30.14,30.08,10,10,10,15,10,18,0.00,5,Rain,149
2012-10-31,51,44,37,43,37,30,100,80,50,30.09,30.02,29.94,10,10,7,23,7,26,0.00,5,Rain,191